Weather History for KPNC - September, 2012

Change the Weather History Date:

Sunday, September 23, 2012

  Actual Average Record
Temperature  
Mean Temperature 66 °F -  
Max Temperature 79 °F 82 °F 95 °F (1956)
Min Temperature 54 °F 56 °F 45 °F (1952)
Cooling Degree Days 2    
Growing Degree Days 16 (Base 50)    
Moisture  
Dew Point 36 °F    
Average Humidity 34    
Maximum Humidity 53    
Minimum Humidity 21    
Precipitation  
Precipitation 0.00 in - - ()
Sea Level Pressure  
Sea Level Pressure 30.18 in    
Wind  
Wind Speed 12 mph (East)    
Max Wind Speed 16 mph    
Max Gust Speed 23 mph    
Visibility 10 miles    
Events      
Averages and records for this station are not official NWS values.
T = Trace of Precipitation, MM = Missing Value Source: NWS Daily Summary

Daily Weather History Graph

Daily Weather History Graph

Search for Another Location

Airport or City:

Trip Planner

Search our weather history database for the weather conditions in past years. The results will help you decide how hot, cold, wet, or windy it might be!

Date:

Astronomy

Sep. 23, 2012 Rise Set
Actual Time 7:17 AM CDT 7:22 PM CDT
Civil Twilight 6:51 AM CDT 7:48 PM CDT
Nautical Twilight 6:21 AM CDT 8:18 PM CDT
Astronomical Twilight 5:50 AM CDT 8:49 PM CDT
Moon 3:17 PM CDT (9/23) 12:39 AM CDT (9/23)
Length of Visible Light 12h 57m
Length of Day
12h 05m
First Quarter, 60% of the Moon is Illuminated
Sep 23
First Quarter
Sep 29
Full
Oct 8
Last Quarter
Oct 15
New
Oct 21
First Quarter

Hourly Weather History & Observations

Time (CDT) Temp. Dew Point Humidity Pressure Visibility Wind Dir Wind Speed Gust Speed Precip Events Conditions
12:53 AM 63.0 °F 28.9 °F 28% 30.18 in 10.0 mi ENE 12.7 mph - N/A   Partly Cloudy
1:53 AM 61.0 °F 28.9 °F 30% 30.20 in 10.0 mi NE 10.4 mph - N/A   Partly Cloudy
2:53 AM 60.1 °F 28.9 °F 31% 30.20 in 10.0 mi ENE 8.1 mph - N/A   Partly Cloudy
3:53 AM 57.9 °F 32.0 °F 37% 30.21 in 10.0 mi East 11.5 mph 17.3 mph N/A   Clear
4:53 AM 57.0 °F 35.1 °F 44% 30.21 in 10.0 mi East 9.2 mph - N/A   Clear
5:53 AM 57.0 °F 34.0 °F 42% 30.21 in 10.0 mi East 9.2 mph - N/A   Clear
6:53 AM 55.9 °F 35.1 °F 45% 30.26 in 10.0 mi NNE 5.8 mph - N/A   Mostly Cloudy
7:53 AM 54.0 °F 37.0 °F 53% 30.24 in 10.0 mi East 8.1 mph - N/A   Partly Cloudy
8:53 AM 57.0 °F 35.1 °F 44% 30.22 in 10.0 mi ESE 13.8 mph - N/A   Clear
9:53 AM 62.1 °F 35.1 °F 37% 30.23 in 10.0 mi ESE 13.8 mph 19.6 mph N/A   Clear
10:53 AM 66.0 °F 37.0 °F 34% 30.24 in 10.0 mi East 12.7 mph 18.4 mph N/A   Clear
11:53 AM 69.1 °F 37.0 °F 31% 30.23 in 10.0 mi East 15.0 mph 18.4 mph N/A   Clear
12:53 PM 71.6 °F 39.2 °F 31% 30.24 in 10.0 mi East 12.7 mph - N/A   Clear
1:53 PM 72.0 °F 34.0 °F 25% 30.19 in 10.0 mi East 16.1 mph - N/A   Clear
2:53 PM 75.0 °F 36.0 °F 24% 30.16 in 10.0 mi ENE 11.5 mph - N/A   Clear
3:53 PM 78.1 °F 36.0 °F 22% 30.13 in 10.0 mi East 15.0 mph 19.6 mph N/A   Clear
4:53 PM 79.0 °F 36.0 °F 21% 30.11 in 10.0 mi East 12.7 mph 21.9 mph N/A   Clear
5:53 PM 77.0 °F 35.1 °F 22% 30.10 in 10.0 mi East 15.0 mph - N/A   Clear
6:53 PM 75.0 °F 36.0 °F 24% 30.12 in 10.0 mi ESE 11.5 mph - N/A   Clear
7:53 PM 71.1 °F 39.0 °F 31% 30.13 in 10.0 mi East 9.2 mph - N/A   Clear
8:53 PM 66.9 °F 41.0 °F 39% 30.13 in 10.0 mi ENE 11.5 mph - N/A   Clear
9:53 PM 66.9 °F 42.1 °F 40% 30.14 in 10.0 mi East 12.7 mph 20.7 mph N/A   Clear
10:53 PM 66.0 °F 42.1 °F 42% 30.12 in 10.0 mi East 16.1 mph 23.0 mph N/A   Clear
11:53 PM 64.9 °F 42.1 °F 43% 30.12 in 10.0 mi East 11.5 mph - N/A   Clear